GW5930 Weather Reports


time (UTC)temp
C
wind
direction
speed
KPH
gust
KPH
rain 1hr
cm
rain 24hr
cm
rain mn
cm
humidity
%
barometer
mb
20260906174119 32 97 0.0 6.4 0.00 0.00 0.00 60 1011.8
20260906173615 32 147 4.8 12.9 0.00 0.00 0.00 62 1011.9
20260906173110 32 257 3.2 9.7 0.00 0.00 0.00 61 1011.9
20260906172609 32 242 9.7 11.3 0.00 0.00 0.00 61 1011.8
20260906172105 32 129 6.4 9.7 0.00 0.00 0.00 63 1011.8
20260906171604 32 162 6.4 6.4 0.00 0.00 0.00 63 1011.8
20260906171100 32 95 3.2 6.4 0.00 0.00 0.00 62 1012.0
20260906170556 31 284 3.2 6.4 0.00 0.00 0.00 63 1011.9
20260906170055 31 310 0.0 8.0 0.00 0.00 0.00 67 1012.0
20260906165553 31 269 11.3 14.5 0.00 0.00 0.00 66 1012.1
20260906165052 31 306 12.9 14.5 0.00 0.00 0.00 67 1012.3
20260906164552 31 297 9.7 12.9 0.00 0.00 0.00 67 1012.3
20260906164048 32 247 9.7 17.7 0.00 0.00 0.00 65 1012.6
20260906163543 31 238 6.4 11.3 0.00 0.00 0.00 69 1012.6
20260906163038 31 255 6.4 11.3 0.00 0.00 0.00 70 1012.6
20260906162536 31 276 6.4 11.3 0.00 0.00 0.00 67 1012.6
20260906162031 32 310 3.2 4.8 0.00 0.00 0.00 67 1012.6
20260906161526 31 240 4.8 6.4 0.00 0.00 0.00 69 1012.5
20260906161024 30 238 3.2 8.0 0.00 0.00 0.00 73 1012.6
20260906160524 30 261 9.7 9.7 0.00 0.00 0.00 72 1012.8
20260906160023 31 234 1.6 6.4 0.00 0.00 0.00 72 1012.7
20260906155520 31 203 3.2 9.7 0.00 0.00 0.00 72 1012.8
20260906155016 30 259 6.4 11.3 0.00 0.00 0.00 74 1012.9
20260906154512 30 229 3.2 6.4 0.00 0.00 0.00 73 1012.8
20260906154010 30 235 0.0 9.7 0.00 0.00 0.00 74 1012.9
20260906153509 29 316 3.2 11.3 0.00 0.00 0.00 76 1012.8
20260906153005 30 319 11.3 11.3 0.00 0.00 0.00 76 1012.9
20260906152504 30 329 9.7 9.7 0.00 0.00 0.00 76 1013.1
20260906152004 29 277 4.8 9.7 0.00 0.00 0.00 76 1013.0
20260906151500 29 288 3.2 6.4 0.00 0.00 0.00 80 1013.1
20260906150955 28 282 8.0 8.0 0.00 0.00 0.00 80 1013.0
20260906150450 30 288 11.3 12.9 0.00 0.00 0.00 77 1013.0
20260906145949 29 173 0.0 3.2 0.00 0.00 0.00 82 1013.2
20260906145444 28 355 3.2 8.0 0.00 0.00 0.00 83 1013.1
20260906144943 28 248 6.4 6.4 0.00 0.00 0.00 84 1012.9
20260906144438 28 264 9.7 9.7 0.00 0.00 0.00 84 1013.1
20260906143934 28 264 4.8 8.0 0.00 0.00 0.00 85 1013.0
20260906143429 28 312 4.8 6.4 0.00 0.00 0.00 85 1013.1
20260906142925 27 293 4.8 8.0 0.00 0.00 0.00 87 1013.0
20260906142425 27 264 4.8 4.8 0.00 0.00 0.00 90 1013.2
20260906141920 26 236 3.2 6.4 0.00 0.00 0.00 92 1013.1
20260906141419 26 277 6.4 9.7 0.00 0.00 0.00 91 1012.9
20260906140914 26 218 1.6 8.0 0.00 0.00 0.00 92 1012.9
20260906140409 26 261 4.8 9.7 0.00 0.00 0.00 92 1013.0
20260906135907 26 236 6.4 8.0 0.00 0.00 0.00 93 1013.0
20260906135406 26 266 4.8 8.0 0.00 0.00 0.00 92 1012.8
20260906134902 26 288 3.2 6.4 0.00 0.00 0.00 92 1012.8
20260906134357 26 273 3.2 6.4 0.00 0.00 0.00 93 1012.8
20260906133852 25 271 3.2 6.4 0.00 0.00 0.00 96 1013.0
20260906133348 25 253 3.2 6.4 0.00 0.00 0.00 96 1012.9
20260906132843 25 243 3.2 3.2 0.00 0.00 0.00 98 1013.0
20260906132338 25 240 3.2 4.8 0.00 0.00 0.00 98 1013.2
20260906131834 25 294 3.2 4.8 0.00 0.00 0.00 98 1013.0
20260906131329 25 278 4.8 6.4 0.00 0.00 0.00 99 1013.0
20260906130825 24 301 0.0 4.8 0.00 0.00 0.00 99 1013.3
20260906130324 24 241 1.6 1.6 0.00 0.00 0.00 99 1012.9
20260906125823 23 276 3.2 3.2 0.00 0.00 0.00 99 1013.0
20260906125320 23 265 0.0 4.8 0.00 0.00 0.00 99 1012.8
20260906124816 23 242 4.8 4.8 0.00 0.00 0.00 99 1012.8
20260906124312 23 256 4.8 4.8 0.00 0.00 0.00 99 1012.9
20260906123810 23 282 3.2 4.8 0.00 0.00 0.00 99 1012.9
20260906123305 22 286 3.2 4.8 0.00 0.00 0.00 99 1013.0
20260906122805 22 278 3.2 4.8 0.00 0.00 0.00 99 1013.0
20260906122300 22 287 3.2 3.2 0.00 0.00 0.00 99 1012.8
20260906121757 22 267 3.2 6.4 0.00 0.00 0.00 99 1012.8
20260906121253 22 265 1.6 3.2 0.00 0.00 0.00 99 1013.0
20260906120749 22 259 1.6 3.2 0.00 0.00 0.00 99 1012.9
20260906120245 22 225 0.0 1.6 0.00 0.00 0.00 99 1012.8
20260906115741 22 241 0.0 1.6 0.00 0.00 0.00 99 1012.7
20260906115236 22 220 1.6 3.2 0.00 0.00 0.00 99 1012.7
20260906114734 22 229 0.0 0.0 0.00 0.00 0.00 99 1012.8
20260906114230 22 221 0.0 1.6 0.00 0.00 0.00 99 1012.6
20260906113725 22 242 0.0 1.6 0.00 0.00 0.00 99 1012.9
20260906113224 22 297 0.0 0.0 0.00 0.00 0.00 99 1012.7
20260906112724 21 310 0.0 1.6 0.00 0.00 0.00 99 1012.7
20260906112221 21 322 0.0 0.0 0.00 0.00 0.00 99 1012.8
20260906111721 21 242 0.0 1.6 0.00 0.00 0.00 99 1012.6
20260906111215 21 224 0.0 0.0 0.00 0.00 0.00 99 1012.6
20260906110710 21 205 0.0 0.0 0.00 0.00 0.00 99 1012.4
20260906110206 21 242 0.0 0.0 0.00 0.00 0.00 99 1012.6
20260906105705 21 147 0.0 0.0 0.00 0.00 0.00 99 1012.6
20260906105202 21 185 0.0 1.6 0.00 0.00 0.00 99 1012.3
20260906104701 21 206 0.0 1.6 0.00 0.00 0.00 99 1012.4
20260906104200 21 235 0.0 0.0 0.00 0.00 0.00 99 1012.1
20260906103658 21 224 0.0 1.6 0.00 0.00 0.00 99 1012.1
20260906103153 21 322 0.0 0.0 0.00 0.00 0.00 99 1012.1
20260906102649 21 89 0.0 1.6 0.00 0.00 0.00 99 1012.1
20260906102148 21 359 3.2 3.2 0.00 0.00 0.00 99 1012.0
20260906101648 21 343 1.6 4.8 0.00 0.00 0.00 99 1012.0
20260906101142 21 271 3.2 3.2 0.00 0.00 0.00 99 1012.0
20260906100638 21 263 3.2 3.2 0.00 0.00 0.00 99 1011.8
20260906100134 21 261 1.6 3.2 0.00 0.00 0.00 99 1012.1
20260906095634 21 235 0.0 0.0 0.00 0.00 0.00 99 1011.8
20260906095129 21 269 0.0 1.6 0.00 0.00 0.00 99 1011.8
20260906094628 21 269 0.0 1.6 0.00 0.00 0.00 99 1011.7
20260906094124 21 297 0.0 1.6 0.00 0.00 0.00 99 1011.8
20260906093620 21 202 0.0 0.0 0.00 0.00 0.00 99 1011.7
20260906093120 21 209 0.0 1.6 0.00 0.00 0.00 99 1011.6
20260906092615 21 257 3.2 3.2 0.00 0.00 0.00 99 1011.6
20260906092110 21 269 0.0 1.6 0.00 0.00 0.00 99 1011.5
20260906091606 21 279 1.6 1.6 0.00 0.00 0.00 99 1011.4
20260906091103 21 290 0.0 3.2 0.00 0.00 0.00 99 1011.5
20260906090602 21 309 0.0 0.0 0.00 0.00 0.00 99 1011.3
20260906085601 21 217 0.0 0.0 0.00 0.00 0.00 99 1011.4
20260906085056 21 205 0.0 0.0 0.00 0.00 0.00 99 1011.4
20260906084551 21 196 0.0 1.6 0.00 0.00 0.00 99 1011.6
20260906084049 21 322 0.0 0.0 0.00 0.00 0.00 99 1011.3
20260906083545 21 217 0.0 0.0 0.00 0.00 0.00 99 1011.3
20260906083044 21 212 0.0 1.6 0.00 0.00 0.00 99 1011.4
20260906082540 21 235 0.0 0.0 0.00 0.00 0.00 99 1011.4
20260906082036 21 235 0.0 0.0 0.00 0.00 0.00 99 1011.4
20260906081532 21 246 0.0 1.6 0.00 0.00 0.00 99 1011.5
20260906081027 21 186 0.0 0.0 0.00 0.00 0.00 99 1011.3
20260906080523 22 210 0.0 3.2 0.00 0.00 0.00 99 1011.5
20260906080019 22 297 0.0 0.0 0.00 0.00 0.00 99 1011.4
20260906075513 22 202 0.0 0.0 0.00 0.00 0.00 99 1011.5
20260906075008 22 229 0.0 1.6 0.00 0.00 0.00 99 1011.4
20260906074503 22 217 0.0 0.0 0.00 0.00 0.00 99 1011.6
20260906074001 22 288 0.0 1.6 0.00 0.00 0.00 99 1011.6
20260906073455 22 217 0.0 1.6 0.00 0.00 0.00 99 1011.6
20260906072952 22 206 1.6 3.2 0.00 0.00 0.00 99 1011.6
20260906072447 22 309 0.0 1.6 0.00 0.00 0.00 99 1011.7
20260906071943 22 217 0.0 0.0 0.00 0.00 0.00 99 1011.8
20260906071439 22 217 0.0 0.0 0.00 0.00 0.00 99 1011.6
20260906070935 22 230 1.6 1.6 0.00 0.00 0.00 99 1011.6
20260906070430 22 329 0.0 0.0 0.00 0.00 0.00 99 1011.6
20260906065926 22 230 0.0 0.0 0.00 0.00 0.00 99 1011.6
20260906065420 22 340 1.6 3.2 0.00 0.00 0.00 99 1011.6
20260906064916 22 217 0.0 1.6 0.00 0.00 0.00 99 1011.7
20260906064413 22 209 3.2 3.2 0.00 0.00 0.00 99 1011.6
20260906063912 22 164 0.0 0.0 0.00 0.00 0.00 99 1011.6
20260906063407 22 209 0.0 3.2 0.00 0.00 0.00 99 1011.6
20260906062902 22 240 0.0 3.2 0.00 0.00 0.00 99 1011.5
20260906062401 22 211 1.6 3.2 0.00 0.00 0.00 99 1011.6
20260906061857 22 215 3.2 3.2 0.00 0.00 0.00 99 1011.6
20260906061353 22 244 1.6 3.2 0.00 0.00 0.00 99 1011.9
20260906060848 22 337 3.2 3.2 0.00 0.00 0.00 99 1012.0
20260906060346 22 0 4.8 6.4 0.00 0.00 0.00 99 1012.0
20260906055841 22 316 0.0 3.2 0.00 0.00 0.00 99 1012.1
20260906055337 22 316 1.6 3.2 0.00 0.00 0.00 99 1012.1
20260906054832 22 303 3.2 4.8 0.00 0.00 0.00 99 1012.1
20260906054326 22 347 4.8 6.4 0.00 0.00 0.00 99 1012.1
20260906053823 22 339 3.2 3.2 0.00 0.00 0.00 99 1012.1
20260906053319 22 235 0.0 1.6 0.00 0.00 0.00 99 1011.8
20260906052814 22 199 1.6 3.2 0.00 0.00 0.00 99 1011.9
20260906052310 23 242 0.0 0.0 0.00 0.00 0.00 99 1012.2
20260906051807 23 224 0.0 1.6 0.00 0.00 0.00 99 1012.2
20260906051306 23 220 1.6 1.6 0.00 0.00 0.00 99 1012.1
20260906050802 23 297 0.0 0.0 0.00 0.00 0.00 99 1012.2
20260906050257 23 309 0.0 3.2 0.00 0.00 0.00 99 1012.3
20260906045755 23 332 1.6 3.2 0.00 0.00 0.00 99 1012.3
20260906045250 23 293 1.6 1.6 0.00 0.00 0.00 98 1012.2
20260906044746 23 142 0.0 0.0 0.00 0.00 0.00 98 1012.2
20260906044241 23 242 0.0 3.2 0.00 0.00 0.00 98 1012.2
20260906043737 23 254 6.4 8.0 0.00 0.00 0.00 98 1012.2
20260906043233 23 267 3.2 4.8 0.00 0.00 0.00 98 1012.3
20260906042732 23 265 3.2 3.2 0.00 0.00 0.00 98 1012.1
20260906042231 23 244 1.6 3.2 0.00 0.00 0.00 98 1012.4
20260906041727 23 252 0.0 1.6 0.00 0.00 0.00 98 1012.4
20260906041222 23 299 3.2 3.2 0.00 0.00 0.00 98 1012.4
20260906040718 23 245 3.2 3.2 0.00 0.00 0.00 98 1012.4
20260906040213 23 245 0.0 3.2 0.00 0.00 0.00 98 1012.3
20260906035709 23 241 0.0 3.2 0.00 0.00 0.00 98 1012.3
20260906035204 23 266 1.6 3.2 0.00 0.00 0.00 97 1012.3
20260906034704 23 230 0.0 1.6 0.00 0.00 0.00 97 1012.6
20260906034159 24 250 1.6 3.2 0.00 0.00 0.00 97 1012.7
20260906033655 24 227 1.6 3.2 0.00 0.00 0.00 97 1012.9
20260906033156 24 242 0.0 1.6 0.00 0.00 0.00 97 1012.9
20260906032652 24 282 0.0 3.2 0.00 0.00 0.00 97 1013.1
20260906032152 24 239 3.2 3.2 0.00 0.00 0.00 96 1013.0
20260906031647 24 275 3.2 4.8 0.00 0.00 0.00 97 1013.0
20260906031142 24 265 0.0 3.2 0.00 0.00 0.00 97 1013.1
20260906030642 24 323 1.6 4.8 0.00 0.00 0.00 97 1013.1
20260906030137 24 346 3.2 3.2 0.00 0.00 0.00 97 1012.9
20260906025636 24 267 1.6 3.2 0.00 0.00 0.00 97 1012.7
20260906025136 24 236 3.2 3.2 0.00 0.00 0.00 97 1012.7
20260906024631 24 239 1.6 3.2 0.00 0.00 0.00 97 1012.7
20260906024130 24 326 1.6 3.2 0.00 0.00 0.00 97 1012.7
20260906023627 24 246 0.0 1.6 0.00 0.00 0.00 97 1012.5
20260906023126 24 333 0.0 1.6 0.00 0.00 0.00 97 1012.6
20260906022622 24 246 0.0 1.6 0.00 0.00 0.00 96 1012.4
20260906022117 24 218 0.0 3.2 0.00 0.00 0.00 96 1012.4
20260906021613 24 217 0.0 0.0 0.00 0.00 0.00 96 1012.4
20260906021111 24 244 0.0 0.0 0.00 0.00 0.00 96 1012.4
20260906020611 24 231 3.2 3.2 0.00 0.00 0.00 95 1012.1
20260906020106 24 184 0.0 1.6 0.00 0.00 0.00 95 1012.3
20260906015605 24 212 0.0 1.6 0.00 0.00 0.00 94 1012.0
20260906015104 25 223 4.8 4.8 0.00 0.00 0.00 94 1012.0
20260906014600 25 217 3.2 3.2 0.00 0.00 0.00 93 1011.9
20260906014056 25 222 1.6 3.2 0.00 0.00 0.00 93 1012.0
20260906013551 25 321 0.0 3.2 0.00 0.00 0.00 93 1011.9
20260906013046 25 228 0.0 3.2 0.00 0.00 0.00 92 1011.7
20260906012541 25 212 1.6 3.2 0.00 0.00 0.00 92 1011.7
20260906012040 25 154 0.0 0.0 0.00 0.00 0.00 92 1011.5
20260906011537 25 220 0.0 3.2 0.00 0.00 0.00 91 1011.4
20260906011036 25 225 1.6 3.2 0.00 0.00 0.00 90 1011.3
20260906010532 25 224 3.2 4.8 0.00 0.00 0.00 90 1011.3
20260906010028 25 221 0.0 3.2 0.00 0.00 0.00 89 1011.3
20260906005527 26 261 0.0 3.2 0.00 0.00 0.00 88 1011.1
20260906005027 26 283 0.0 3.2 0.00 0.00 0.00 88 1011.1
20260906004526 26 274 3.2 3.2 0.00 0.00 0.00 87 1011.1
20260906004022 26 272 1.6 4.8 0.00 0.00 0.00 87 1011.0
20260906003517 26 264 3.2 6.4 0.00 0.00 0.00 86 1010.9
20260906003013 26 287 3.2 3.2 0.00 0.00 0.00 85 1011.1
20260906002513 26 262 3.2 8.0 0.00 0.00 0.00 85 1011.1
20260906002008 26 243 1.6 8.0 0.00 0.00 0.00 85 1011.0
20260906001503 27 248 3.2 9.7 0.00 0.00 0.00 84 1011.0
20260906000957 27 244 3.2 6.4 0.00 0.00 0.00 83 1011.1
20260906000455 27 251 3.2 3.2 0.00 0.00 0.00 83 1011.2
20260905235948 27 217 1.6 4.8 0.00 0.00 0.00 82 1011.0
20260905235448 28 242 1.6 3.2 0.00 0.00 0.00 81 1011.0
20260905234943 28 302 3.2 4.8 0.00 0.00 0.00 79 1011.1
20260905234439 28 264 4.8 6.4 0.00 0.00 0.00 78 1011.1
20260905233938 28 260 3.2 4.8 0.00 0.00 0.00 76 1011.2
20260905233434 29 242 3.2 6.4 0.00 0.00 0.00 74 1011.0
20260905232932 30 250 4.8 6.4 0.00 0.00 0.00 73 1011.1
20260905232428 30 256 6.4 8.0 0.00 0.00 0.00 71 1010.9
20260905231924 30 244 4.8 8.0 0.00 0.00 0.00 71 1011.1
20260905231420 31 231 8.0 9.7 0.00 0.00 0.00 68 1011.1
20260905230916 31 247 6.4 6.4 0.00 0.00 0.00 67 1011.1
20260905230414 30 230 4.8 6.4 0.00 0.00 0.00 69 1011.0
20260905225913 31 241 6.4 14.5 0.00 0.00 0.00 69 1011.0
20260905225408 30 244 4.8 6.4 0.00 0.00 0.00 69 1011.1
20260905224903 31 268 9.7 9.7 0.00 0.00 0.00 66 1011.1
20260905224359 30 250 6.4 6.4 0.00 0.00 0.00 70 1011.2
20260905223853 30 264 8.0 8.0 0.00 0.00 0.00 72 1011.1
20260905223352 30 253 6.4 9.7 0.00 0.00 0.00 73 1011.2
20260905222851 30 266 6.4 9.7 0.00 0.00 0.00 72 1011.2
20260905222350 30 248 1.6 14.5 0.00 0.00 0.00 74 1011.2
20260905221846 30 264 9.7 9.7 0.00 0.00 0.00 73 1011.2
20260905221343 30 271 8.0 11.3 0.00 0.00 0.00 76 1011.3
20260905220838 29 272 8.0 14.5 0.00 0.00 0.00 77 1011.3
20260905220335 29 264 11.3 16.1 0.00 0.00 0.00 76 1011.5
20260905215834 30 253 9.7 9.7 0.00 0.00 0.00 77 1011.7
20260905215330 29 220 8.0 14.5 0.00 0.00 0.00 80 1011.7
20260905214826 29 239 6.4 12.9 0.00 0.00 0.00 80 1011.9
20260905214321 29 205 8.0 12.9 0.00 0.00 0.00 82 1011.6
20260905213816 28 259 6.4 8.0 0.00 0.00 0.00 84 1011.7
20260905213312 28 256 4.8 8.0 0.00 0.00 0.00 83 1011.5
20260905212807 28 246 4.8 8.0 0.00 0.00 0.00 84 1011.5
20260905212306 28 242 3.2 8.0 0.00 0.00 0.00 83 1011.4
20260905211801 29 231 3.2 8.0 0.00 0.00 0.00 81 1011.3
20260905211256 29 198 8.0 8.0 0.00 0.00 0.00 78 1011.4
20260905210753 30 251 8.0 11.3 0.00 0.00 0.00 77 1011.5
20260905210252 29 300 6.4 9.7 0.00 0.00 0.00 78 1011.4
20260905205751 29 288 4.8 12.9 0.00 0.00 0.00 79 1011.5
20260905205246 29 272 9.7 14.5 0.00 0.00 0.00 78 1011.7
20260905204745 29 275 8.0 14.5 0.00 0.00 0.00 80 1011.7
20260905204242 30 297 9.7 14.5 0.00 0.00 0.00 78 1011.9
20260905203741 28 303 8.0 14.5 0.00 0.00 0.00 81 1011.8
20260905203236 28 315 16.1 19.3 0.00 0.00 0.00 81 1012.0
20260905202732 28 279 11.3 17.7 0.00 0.00 0.00 83 1011.8
20260905202227 28 291 8.0 12.9 0.00 0.00 0.00 84 1012.0
20260905201722 28 316 14.5 17.7 0.00 0.00 0.00 83 1012.0
20260905201222 28 280 9.7 16.1 0.00 0.00 0.00 81 1011.8
20260905200718 28 275 11.3 17.7 0.00 0.00 0.00 79 1012.1
20260905200213 29 265 6.4 20.9 0.00 0.00 0.00 77 1012.3
20260905195711 30 277 9.7 16.1 0.00 0.00 0.00 73 1012.3
20260905195206 30 275 8.0 14.5 0.00 0.00 0.00 72 1012.4
20260905194702 30 304 9.7 17.7 0.00 0.00 0.00 70 1012.3
20260905194201 31 303 9.7 17.7 0.00 0.00 0.00 67 1012.3
20260905193655 31 341 14.5 19.3 0.00 0.00 0.00 67 1012.4
20260905193151 32 280 14.5 20.9 0.00 0.00 0.00 62 1012.6
20260905192646 31 261 9.7 11.3 0.00 0.00 0.00 65 1012.7
20260905192143 31 287 8.0 14.5 0.00 0.00 0.00 64 1012.9
20260905191642 31 274 11.3 14.5 0.00 0.00 0.00 64 1012.9
20260905191140 31 296 3.2 9.7 0.00 0.00 0.00 64 1012.9
20260905190638 31 314 8.0 17.7 0.00 0.00 0.00 66 1012.9
20260905190132 31 346 6.4 12.9 0.00 0.00 0.00 67 1012.9
20260905185631 30 315 14.5 16.1 0.00 0.00 0.00 67 1012.9
20260905185126 30 313 19.3 22.5 0.00 0.00 0.00 67 1013.0
20260905184626 31 305 12.9 17.7 0.00 0.00 0.00 67 1013.0
20260905184125 30 301 12.9 14.5 0.00 0.00 0.00 68 1012.8
20260905183624 31 282 9.7 9.7 0.00 0.00 0.00 69 1013.1
20260905183120 30 340 4.8 9.7 0.00 0.00 0.00 69 1013.0
20260905182619 30 284 9.7 20.9 0.00 0.00 0.00 69 1013.1
20260905182119 30 277 16.1 20.9 0.00 0.00 0.00 68 1013.2
20260905181620 30 288 6.4 9.7 0.00 0.00 0.00 69 1013.2
20260905181119 30 295 14.5 16.1 0.00 0.00 0.00 69 1013.3
20260905180614 30 291 9.7 9.7 0.00 0.00 0.00 69 1013.2
20260905180109 30 347 4.8 6.4 0.00 0.00 0.00 70 1013.3
20260905175608 30 268 6.4 17.7 0.00 0.00 0.00 70 1013.5
20260905175104 30 293 9.7 16.1 0.00 0.00 0.00 70 1013.6
20260905174600 30 16 3.2 16.1 0.00 0.00 0.00 71 1013.6